[[{"header":{"parameterUnit":"m.s-1","parameterCategory":1,"la1":30.2992,"la2":30.254,"lo1":-89.0895,"lo2":-89.0443,"dy":0.0025,"dx":0.0025,"nx":19,"ny":19,"refTime":"2026-04-16T03:00:00:Z","depth":0,"parameterNumber":2,"parameterNumberName":"U-component_of_WINDS"},"data":[0,0,0,-0.3253,-0.3251,-0.3153,-0.3153,-0.3038,-0.3037,0,0,0,0,0,0,0,0,0,0,0,-0.3288,-0.3288,-0.3253,-0.3251,-0.3153,-0.3153,-0.3038,-0.3037,0,0,0,0,0,0,0,0,0,0,0,-0.3289,-0.3288,-0.3287,-0.325,-0.3153,-0.3153,-0.3039,-0.3108,0,0,0,0,0,0,0,0,0,0,-0.3201,-0.3241,-0.3288,-0.3287,-0.325,-0.3153,-0.3153,-0.3112,-0.3104,-0.3087,0,-0.3074,0,-0.3054,-0.303,-0.303,0,0,0,-0.3245,-0.3247,-0.3215,-0.3287,-0.3249,-0.3154,-0.3196,-0.3107,-0.3099,-0.3077,-0.3072,-0.3068,-0.3052,-0.303,-0.3029,-0.2951,-0.2951,0,0,-0.3251,-0.3274,-0.3221,-0.321,-0.3226,-0.3199,-0.3193,-0.3102,-0.3098,-0.3072,-0.3065,-0.305,-0.3029,-0.3028,-0.2951,-0.2951,0,0,0,-0.327,-0.3278,-0.3248,-0.3215,-0.3197,-0.3196,-0.3189,-0.3102,-0.309,-0.3064,-0.3049,-0.3028,-0.3027,-0.2951,-0.2951,-0.2968,0,0,0,-0.3273,-0.3289,-0.325,-0.3264,-0.3198,-0.3148,-0.3191,-0.3097,-0.3086,-0.305,-0.3028,-0.3026,-0.2951,-0.2951,-0.2968,-0.2972,0,0,0,-0.3292,-0.3291,-0.328,-0.3265,-0.3224,-0.3149,-0.3132,-0.3094,-0.3077,-0.303,-0.3026,-0.2951,-0.2951,-0.2967,-0.2971,-0.2958,0,0,0,-0.332,-0.3296,-0.328,-0.3248,-0.3225,-0.3161,-0.3132,-0.3083,-0.3045,-0.3028,-0.2951,-0.2951,-0.2967,-0.2971,-0.2958,-0.2952,-0.2951,0,0,-0.3302,-0.3294,-0.3273,-0.3257,-0.3201,-0.3174,-0.312,-0.3063,-0.3036,-0.2981,-0.2978,-0.2968,-0.2971,-0.2958,-0.294,-0.294,0,0,0,-0.3275,-0.3261,-0.3241,-0.3206,-0.3162,-0.3125,-0.3073,-0.3052,-0.3004,-0.3013,-0.2959,-0.296,-0.2952,-0.2947,-0.2947,-0.2938,-0.295,-0.295,-0.295,-0.3284,-0.3252,-0.3216,-0.3173,-0.314,-0.3087,-0.3057,-0.302,-0.2997,-0.2985,-0.2968,-0.2961,-0.2957,-0.2956,-0.2948,-0.2962,-0.2962,-0.2962,-0.2962,-0.3255,-0.3229,-0.3201,-0.3155,-0.3122,-0.3083,-0.3032,-0.3018,-0.2976,-0.2971,-0.2961,-0.2958,-0.2957,-0.2948,-0.2963,-0.2963,-0.2963,-0.2963,-0.2963,-0.3257,-0.3239,-0.3215,-0.3162,-0.3125,-0.3082,-0.3045,-0.3015,-0.2988,-0.2979,-0.2958,-0.2958,-0.2954,-0.2971,-0.2971,-0.2971,-0.2971,-0.2971,-0.2971,-0.3269,-0.3241,-0.3213,-0.3165,-0.3139,-0.3102,-0.305,-0.3024,-0.2987,-0.2969,-0.2969,-0.2948,-0.2963,-0.2968,-0.297,-0.2971,-0.2971,-0.2971,-0.2971,-0.3252,-0.3251,-0.3208,-0.3182,-0.3125,-0.309,-0.3054,-0.3003,-0.2978,-0.296,-0.2941,-0.2957,-0.2946,-0.2946,-0.295,-0.2948,-0.2948,-0.2948,-0.2948,-0.3253,-0.3246,-0.3195,-0.3157,-0.3115,-0.3079,-0.3031,-0.2991,-0.2948,-0.2931,-0.2927,-0.2929,-0.293,-0.2919,-0.2919,-0.2922,-0.2913,-0.2913,-0.2913,-0.3241,-0.3228,-0.3193,-0.3153,-0.3106,-0.3066,-0.302,-0.2977,-0.2929,-0.2911,-0.2916,-0.2917,-0.2921,-0.2923,-0.2905,-0.2907,-0.2911,0,0]},{"header":{"parameterUnit":"m.s-1","parameterCategory":1,"la1":30.2992,"la2":30.254,"lo1":-89.0895,"lo2":-89.0443,"dy":0.0025,"dx":0.0025,"nx":19,"ny":19,"refTime":"2026-04-16T03:00:00:Z","depth":0,"parameterNumber":3,"parameterNumberName":"V-component_of_WINDS"},"data":[0,0,0,4.314,4.3143,4.3254,4.3254,4.3402,4.3403,0,0,0,0,0,0,0,0,0,0,0,4.3115,4.3116,4.314,4.3143,4.3254,4.3254,4.3402,4.3403,0,0,0,0,0,0,0,0,0,0,0,4.3114,4.3115,4.3117,4.3144,4.3254,4.3254,4.3401,4.3315,0,0,0,0,0,0,0,0,0,0,4.3206,4.319,4.3115,4.3117,4.3144,4.3254,4.3254,4.331,4.332,4.3355,0,4.3392,0,4.34,4.3414,4.3415,0,0,0,4.3137,4.3182,4.3206,4.3117,4.3145,4.3254,4.3202,4.3316,4.3327,4.3368,4.3394,4.3399,4.3403,4.3415,4.3416,4.3649,4.365,0,0,4.3131,4.3137,4.3198,4.3213,4.3201,4.3199,4.3206,4.3322,4.3349,4.3394,4.3402,4.3405,4.3416,4.3417,4.3647,4.3649,0,0,0,4.3117,4.3133,4.3154,4.3207,4.3227,4.3202,4.321,4.3344,4.335,4.3404,4.3407,4.3417,4.3419,4.3646,4.3648,4.3725,0,0,0,4.3113,4.3126,4.3152,4.3157,4.3225,4.3288,4.3229,4.3342,4.3355,4.3406,4.3417,4.342,4.3644,4.3647,4.372,4.376,0,0,0,4.3105,4.3124,4.3143,4.3157,4.3206,4.3286,4.3299,4.3345,4.3358,4.3415,4.3421,4.3643,4.3647,4.3715,4.3752,4.3824,0,0,0,4.3096,4.3208,4.3145,4.327,4.3205,4.3334,4.3298,4.3392,4.3451,4.3418,4.3645,4.3648,4.3713,4.3747,4.3819,4.3887,4.3916,0,0,4.3241,4.3226,4.3299,4.3246,4.3388,4.3316,4.3468,4.3513,4.351,4.3602,4.3607,4.3722,4.3751,4.3823,4.4074,4.4097,0,0,0,4.3347,4.34,4.3436,4.3494,4.3533,4.3569,4.3591,4.3607,4.3686,4.356,4.3766,4.3784,4.3826,4.3858,4.3877,4.3912,4.3663,4.3663,4.3662,4.356,4.3554,4.3674,4.3682,4.3738,4.376,4.3803,4.3829,4.3803,4.3852,4.3879,4.4033,4.4071,4.4086,4.4122,4.3914,4.3914,4.3915,4.3915,4.3771,4.3845,4.3811,4.3917,4.3908,4.3994,4.4019,4.3998,4.4076,4.4012,4.4048,4.3979,4.4111,4.4143,4.392,4.3919,4.3919,4.3918,4.3918,4.3911,4.3945,4.3966,4.4049,4.4114,4.4115,4.4192,4.418,4.4169,4.4205,4.4232,4.4231,4.4229,4.4219,4.4219,4.422,4.422,4.4221,4.4221,4.4048,4.4068,4.4137,4.419,4.4225,4.4271,4.4294,4.4327,4.4361,4.4346,4.4346,4.4315,4.4126,4.4079,4.4229,4.4228,4.4227,4.4226,4.4226,4.4265,4.4214,4.4321,4.4357,4.4417,4.4482,4.4466,4.4536,4.4561,4.46,4.4561,4.4423,4.4406,4.439,4.4351,4.4563,4.4563,4.4563,4.4563,4.4383,4.4374,4.4481,4.4539,4.4595,4.4592,4.471,4.4728,4.4738,4.4753,4.4721,4.4668,4.4652,4.4644,4.4623,4.4586,4.4853,4.4853,4.4853,4.4516,4.4512,4.4617,4.463,4.4676,4.4715,4.4825,4.4891,4.4892,4.4865,4.4765,4.4753,4.4667,4.4639,4.4611,4.4578,4.451,0,0]}]]